Weather Roundup
Issued by NWS

Home | Current Version | Previous Version | Graphics & Text | Print | Product List | Glossary Off
Versions: 1 2 3 4 5 6 7 8 9 10 11 12 13 14 15 16 17 18 19 20 21 22 23 24 25 26 27 28 29 30 31 32 33 34 35 36 37 38 39 40 41 42 43 44 45 46 47 48 49 50

000
NZUS93 KARX 232359
HRRWXR

CURRENT HOURLY OBSERVATIONS ACROSS
MUCH OF THE UPPER MISSISSIPPI VALLEY
NATIONAL WEATHER SERVICE LA CROSSE WI
700 PM CDT THU OCT 23 2014


...SOUTHEAST MINNESOTA...


CITY           SKY/WX    TMP DP  RH WIND       PRES   REMARKS
ROCHESTER      CLEAR     50  48  93 SE7       30.02R
ROCHESTER/MAYO FAIR      54  50  87 SE9       30.01R
WINONA         CLOUDY    54  52  94 CALM      30.02R
AUSTIN         CLEAR     54  50  87 CALM      30.01R
ALBERT LEA     CLEAR     57  50  77 CALM      29.99R
DODGE CENTER   PTCLDY    52  48  87 SE6       30.00R
PRESTON        CLEAR     47  46  96 S6        30.02S FOG
OWATONNA       CLEAR     48  41  76 CALM      29.99R
FARIBAULT      CLEAR     46  43  87 CALM      29.99R
$$

...ELSEWHERE IN MINNESOTA...


CITY           SKY/WX    TMP DP  RH WIND       PRES   REMARKS
MINNEAPOLIS    CLEAR     59  46  62 SE9       29.97R
INTNL FALLS    PTCLDY    52  36  54 SW5       29.84S
DULUTH         PTCLDY    51  46  83 S6        29.94R
RED WING         N/A     52  48  87 SE5       30.00R
REDWOOD FALLS  CLEAR     61  39  44 SW7       29.95R
MANKATO        CLEAR     61  36  39 CALM      29.97S
WORTHINGTON    CLEAR     57  45  62 SW6       29.99R
FAIRMONT       CLEAR     57  27  30 SW5       29.98R
$$

...SOUTHWEST WISCONSIN...


CITY           SKY/WX    TMP DP  RH WIND       PRES   REMARKS
LA CROSSE      CLOUDY    50  48  93 SE6       30.02S FOG
PRAIRIE DU CHI CLOUDY    50  48  93 CALM      30.03F FOG
BOSCOBEL       CLOUDY    50  48  93 CALM      30.04F FOG
LONE ROCK      NOT AVBL
PLATTEVILLE    CLOUDY    50  49  95 CALM      30.05R
FORT MC COY    CLOUDY    47  47  99 CALM      30.05R FOG
VIROQUA        CLOUDY    47  47 100 CALM      30.03S VSB 1/2
WIS DELLS      CLOUDY    47  46  94 CALM      30.04S FOG
$$

...ELSEWHERE IN WISCONSIN...


CITY           SKY/WX    TMP DP  RH WIND       PRES   REMARKS
MILWAUKEE      CLOUDY    52  48  86 E5        30.06S
MADISON        CLOUDY    52  49  89 CALM      30.04S
GREEN BAY      CLOUDY    49  48  97 CALM      30.05S FOG
EAU CLAIRE     NOT AVBL
BLACK RVR FLS  FOG       48  48 100 CALM      30.02S VSB 3/4
MEDFORD        FOG       46  45  99 S3        30.02R VSB 1/4
WAUSAU         FOG       46  46 100 S5        30.02R VSB 1
WIS RAPIDS     CLOUDY    47  46  97 CALM      30.05R FOG
MARSHFIELD     FOG       47  46  97 S5        30.02R VSB 1/4
RICE LAKE      CLOUDY    51  48  92 SE7       30.01S
$$

...NORTHEAST IOWA...


CITY           SKY/WX    TMP DP  RH WIND       PRES   REMARKS
DECORAH        CLOUDY    52  52 100 CALM      30.02S FOG
MASON CITY     CLEAR     51  45  79 S3        30.02R
CHARLES CITY   CLEAR     52  50  93 SE6       30.02R
OELWEIN        MOCLDY    52  52 100 CALM      30.04R FOG
$$

...ELSEWHERE IN IOWA...


CITY           SKY/WX    TMP DP  RH WIND       PRES   REMARKS
DES MOINES     PTCLDY    62  51  67 SE7       30.02R
IOWA CITY      FOG       52  52 100 CALM      30.05R VSB 3/4
FORT DODGE     CLEAR     54  45  71 CALM      30.01R
$$

...NORTHERN ILLINOIS...


CITY           SKY/WX    TMP DP  RH WIND       PRES   REMARKS
CHICAGO-OHARE  CLOUDY    54  42  64 S8        30.06S
CHICAGO-MIDWAY CLOUDY    58  40  51 S5        30.07R
MOLINE         CLOUDY    59  47  64 S3        30.04S
ROCKFORD       LGT RAIN  52  47  83 S6        30.09R
PEORIA         CLOUDY    58  45  62 S7        30.07R
$$

NOTE: "FAIR" INDICATES FEW OR NO CLOUDS BELOW 12,000 FEET WITH NO
SIGNIFICANT WEATHER AND/OR OBSTRUCTIONS TO VISIBILITY. WIND
SPEEDS ARE IN MILES-PER-HOUR.



USA.gov is the U.S. government's official web portal to all federal, state and local government web resources and services.